FW1075 Weather Reports


time (UTC)temp
C
wind
direction
speed
KPH
gust
KPH
rain 1hr
cm
rain 24hr
cm
rain mn
cm
humidity
%
barometer
mb
20260901063122 21 146 1.6 3.2 0.18 0.33 0.33 99 1015.1
20260901062121 21 225 1.6 6.4 0.28 0.33 0.33 99 1015.4
20260901061121 21 157 1.6 3.2 0.33 0.33 0.33 99 1015.4
20260901060142 21 126 0.0 3.2 0.33 0.33 0.33 99 1015.4
20260901055142 21 234 0.0 3.2 0.30 0.30 0.30 99 1015.6
20260901054121 21 220 0.0 3.2 0.15 0.15 0.15 99 1015.6
20260901053121 21 180 0.0 3.2 0.15 0.15 0.15 99 1015.7
20260901052125 21 207 0.0 3.2 0.08 0.08 0.08 99 1015.9
20260901051122 21 200 0.0 3.2 0.00 0.00 0.00 99 1015.8
20260901050122 21 166 3.2 4.8 0.00 0.00 0.00 99 1015.8
20260901045123 22 154 1.6 4.8 0.00 0.00 0.00 98 1015.9
20260901044122 22 231 3.2 8.0 0.00 0.00 0.00 97 1016.0
20260901043143 22 228 3.2 6.4 0.00 0.00 0.00 96 1015.9
20260901042122 22 214 3.2 6.4 0.00 0.00 0.00 95 1015.9
20260901041121 22 246 3.2 6.4 0.00 0.00 0.00 95 1016.0
20260901040123 22 275 4.8 8.0 0.00 0.00 0.00 95 1016.0
20260901035122 22 193 3.2 4.8 0.00 0.00 0.00 95 1015.9
20260901034123 22 227 3.2 4.8 0.00 0.00 0.00 95 1016.1
20260901033121 22 217 1.6 4.8 0.00 0.00 0.00 95 1016.2
20260901032122 22 194 3.2 6.4 0.00 0.00 0.00 95 1016.1
20260901031121 22 175 3.2 4.8 0.00 0.00 0.00 95 1016.4
20260901030122 22 186 3.2 4.8 0.00 0.00 0.00 95 1016.6
20260901025121 22 225 1.6 3.2 0.00 0.00 0.00 95 1016.6
20260901024122 22 187 3.2 6.4 0.00 0.00 0.00 96 1016.6
20260901023122 22 164 1.6 4.8 0.00 0.00 0.00 97 1016.6
20260901022122 22 156 3.2 6.4 0.00 0.00 0.00 97 1016.7
20260901021121 22 162 1.6 4.8 0.00 0.00 0.00 98 1016.7
20260901020123 22 199 1.6 4.8 0.00 0.03 0.00 98 1016.7
20260901015122 22 200 3.2 4.8 0.00 0.03 0.00 98 1016.8
20260901014122 22 192 1.6 4.8 0.00 0.03 0.00 98 1016.8
20260901013142 22 234 1.6 4.8 0.00 0.03 0.00 98 1016.9
20260901012123 22 174 1.6 4.8 0.00 0.03 0.00 97 1016.8
20260901011122 22 193 3.2 6.4 0.00 0.03 0.00 95 1016.7
20260901010123 22 186 3.2 6.4 0.00 0.03 0.00 93 1016.7
20260901005142 22 199 1.6 4.8 0.00 0.03 0.00 92 1016.7
20260901004122 22 179 3.2 6.4 0.00 0.03 0.00 91 1016.6
20260901003122 22 222 1.6 6.4 0.00 0.03 0.00 91 1016.6
20260901002121 22 151 3.2 6.4 0.00 0.03 0.00 91 1016.6
20260901001122 22 152 3.2 6.4 0.00 0.03 0.00 89 1016.5
20260901000123 22 147 3.2 6.4 0.00 0.03 0.00 89 1016.5
20260831235123 22 125 3.2 4.8 0.00 0.03 0.00 88 1016.6
20260831234121 23 157 1.6 3.2 0.00 0.03 0.00 87 1016.7
20260831233121 23 155 1.6 3.2 0.00 0.03 0.00 86 1016.8
20260831232122 23 142 1.6 4.8 0.00 0.03 0.00 84 1016.8
20260831231122 23 119 1.6 3.2 0.00 0.03 0.00 84 1016.8
20260831230142 23 160 3.2 4.8 0.00 0.03 0.00 84 1016.8
20260831225143 23 218 3.2 6.4 0.00 0.03 0.00 84 1016.8
20260831224124 23 207 1.6 4.8 0.00 0.03 0.00 84 1016.7
20260831223124 23 144 3.2 4.8 0.00 0.03 0.00 83 1016.8
20260831222121 23 188 3.2 6.4 0.00 0.03 0.00 81 1016.9
20260831221122 24 150 3.2 6.4 0.00 0.03 0.00 82 1017.1
20260831220121 23 125 4.8 6.4 0.00 0.03 0.00 83 1017.1
20260831215122 24 232 4.8 8.0 0.00 0.03 0.00 82 1016.9
20260831214121 24 190 3.2 6.4 0.00 0.03 0.00 82 1017.0
20260831213144 24 190 3.2 6.4 0.00 0.03 0.00 83 1017.2
20260831212124 24 246 4.8 8.0 0.00 0.03 0.00 82 1017.2
20260831211125 24 117 3.2 8.0 0.00 0.03 0.00 82 1017.0
20260831210123 24 206 4.8 8.0 0.00 0.03 0.00 80 1017.0
20260831205122 24 134 3.2 6.4 0.00 0.03 0.00 80 1017.1
20260831204123 24 279 6.4 9.7 0.00 0.03 0.00 79 1017.1
20260831203123 24 209 4.8 8.0 0.00 0.03 0.00 79 1017.2
20260831202143 25 192 3.2 9.7 0.00 0.03 0.00 78 1017.4
20260831201124 25 177 3.2 6.4 0.00 0.03 0.00 76 1017.4
20260831200125 25 237 4.8 8.0 0.00 0.03 0.00 76 1017.4
20260831195125 25 214 4.8 9.7 0.00 0.03 0.00 76 1017.5
20260831194121 25 163 4.8 8.0 0.00 0.03 0.00 74 1017.4
20260831193121 25 181 4.8 9.7 0.00 0.03 0.00 73 1017.5
20260831192121 25 232 4.8 8.0 0.00 0.03 0.00 72 1017.7
20260831191121 26 151 4.8 11.3 0.00 0.03 0.00 71 1017.7
20260831190143 26 219 4.8 8.0 0.00 0.03 0.00 69 1017.7
20260831185142 26 216 4.8 9.7 0.00 0.03 0.00 70 1017.7
20260831184121 26 246 4.8 8.0 0.00 0.03 0.00 70 1017.7
20260831183121 27 294 4.8 11.3 0.00 0.03 0.00 68 1017.7
20260831182121 27 146 4.8 8.0 0.00 0.03 0.00 66 1017.9
20260831181123 27 188 4.8 8.0 0.00 0.03 0.00 67 1018.0
20260831180122 28 210 4.8 8.0 0.00 0.03 0.00 63 1018.0
20260831175122 30 158 4.8 8.0 0.00 0.03 0.00 61 1018.0
20260831174121 30 139 4.8 8.0 0.00 0.03 0.00 61 1018.0
20260831173121 28 318 3.2 8.0 0.00 0.03 0.00 65 1018.1
20260831172123 27 102 1.6 4.8 0.00 0.03 0.00 68 1018.2
20260831171122 26 211 3.2 6.4 0.00 0.03 0.00 70 1018.2
20260831170122 26 139 3.2 4.8 0.00 0.03 0.00 69 1018.2
20260831165122 27 250 3.2 6.4 0.00 0.03 0.00 69 1018.2
20260831164122 27 218 3.2 6.4 0.00 0.03 0.00 69 1018.2
20260831163122 26 127 3.2 6.4 0.00 0.03 0.00 69 1018.4
20260831162122 26 101 3.2 6.4 0.00 0.03 0.00 73 1018.4
20260831161123 25 70 3.2 6.4 0.00 0.03 0.00 74 1018.4
20260831160123 25 284 3.2 6.4 0.00 0.03 0.00 74 1018.4
20260831155122 26 52 3.2 6.4 0.00 0.03 0.00 72 1018.4
20260831154123 26 103 4.8 9.7 0.00 0.03 0.00 72 1018.4
20260831153122 26 121 4.8 11.3 0.00 0.03 0.00 73 1018.4
20260831152121 25 174 3.2 4.8 0.00 0.03 0.00 77 1018.6
20260831151123 24 92 4.8 9.7 0.00 0.03 0.00 79 1018.5
20260831150121 24 101 3.2 6.4 0.00 0.03 0.00 80 1018.5
20260831145121 24 116 3.2 6.4 0.00 0.03 0.00 80 1018.8
20260831144143 23 35 3.2 8.0 0.00 0.03 0.00 82 1018.9
20260831143122 23 100 3.2 6.4 0.00 0.03 0.00 82 1018.7
20260831142122 23 82 3.2 6.4 0.00 0.03 0.00 84 1018.6
20260831141122 22 99 3.2 6.4 0.00 0.03 0.00 86 1018.6
20260831140123 22 95 4.8 8.0 0.00 0.03 0.00 86 1018.6
20260831135121 22 66 3.2 6.4 0.00 0.03 0.00 86 1018.6
20260831134121 22 66 3.2 6.4 0.00 0.03 0.00 86 1018.5
20260831133121 22 56 3.2 4.8 0.00 0.03 0.00 87 1018.5
20260831132124 22 104 3.2 6.4 0.00 0.03 0.00 86 1018.5
20260831131122 22 64 4.8 8.0 0.00 0.03 0.00 87 1018.4
20260831130123 22 25 3.2 4.8 0.00 0.03 0.00 88 1018.4
20260831125122 22 100 3.2 6.4 0.00 0.03 0.00 88 1018.4
20260831124122 22 53 3.2 6.4 0.00 0.03 0.00 89 1018.2
20260831123122 21 40 3.2 6.4 0.00 0.03 0.00 89 1018.1
20260831122121 21 78 4.8 8.0 0.00 0.03 0.00 89 1018.4
20260831121121 21 71 4.8 9.7 0.00 0.03 0.00 89 1018.4
20260831120144 21 64 3.2 6.4 0.00 0.03 0.00 90 1018.4
20260831115123 21 78 3.2 8.0 0.00 0.03 0.00 90 1018.1
20260831114121 21 247 3.2 9.7 0.00 0.03 0.00 91 1018.0
20260831113122 21 240 3.2 8.0 0.00 0.03 0.00 91 1018.0
20260831112122 21 96 3.2 8.0 0.00 0.03 0.00 91 1018.0
20260831111122 21 100 3.2 6.4 0.00 0.03 0.00 92 1018.0
20260831110121 21 98 3.2 8.0 0.00 0.03 0.00 92 1018.0
20260831105124 21 105 3.2 6.4 0.00 0.03 0.00 92 1017.8
20260831104126 21 14 3.2 8.0 0.00 0.03 0.00 92 1017.6
20260831103145 21 56 3.2 6.4 0.00 0.03 0.00 92 1017.5
20260831102143 21 82 3.2 6.4 0.00 0.03 0.00 92 1017.2
20260831101121 21 113 3.2 8.0 0.00 0.03 0.00 92 1017.2
20260831100142 21 99 4.8 11.3 0.00 0.03 0.00 93 1017.2
20260831095121 21 125 3.2 6.4 0.00 0.03 0.00 95 1017.2
20260831094121 21 30 4.8 11.3 0.00 0.03 0.00 96 1017.1
20260831093124 21 48 3.2 6.4 0.00 0.03 0.00 96 1017.1
20260831092124 21 21 3.2 9.7 0.00 0.03 0.00 96 1017.0
20260831091124 21 44 3.2 6.4 0.00 0.03 0.00 96 1016.8
20260831090123 21 48 1.6 4.8 0.00 0.03 0.00 95 1016.8
20260831085122 21 28 1.6 4.8 0.00 0.03 0.00 94 1016.7
20260831084121 21 127 3.2 6.4 0.00 0.03 0.00 93 1016.9
20260831083123 21 86 3.2 6.4 0.00 0.03 0.00 93 1016.7
20260831082122 21 47 3.2 4.8 0.00 0.03 0.00 93 1016.8
20260831081125 21 114 1.6 4.8 0.00 0.03 0.00 92 1016.8
20260831080146 21 321 1.6 4.8 0.00 0.03 0.00 92 1016.8
20260831075126 21 322 1.6 6.4 0.00 0.03 0.00 92 1016.8
20260831074121 21 307 3.2 6.4 0.00 0.03 0.00 92 1016.8
20260831073121 21 350 3.2 6.4 0.00 0.03 0.00 93 1017.0
20260831072121 21 321 1.6 3.2 0.00 0.03 0.00 93 1017.0
20260831071121 21 360 1.6 4.8 0.00 0.03 0.00 93 1017.0
20260831070121 21 326 3.2 4.8 0.00 0.03 0.00 93 1017.0
20260831065122 21 293 1.6 4.8 0.00 0.03 0.00 94 1016.9
20260831064121 21 24 1.6 3.2 0.00 0.03 0.00 96 1016.8